Regional Weather Roundup
Issued by NWS

Home | Current Version | Previous Version | Graphics & Text | Print | Product List | Glossary Off
Versions: 1 2 3 4 5 6 7 8 9 10 11 12 13 14 15 16 17 18 19 20 21 22 23 24 25 26 27 28 29 30 31 32 33 34 35 36 37 38 39 40 41 42 43 44 45 46 47 48 49 50

000
ASUS43 KMPX 280710
RWRMN
WEATHER ROUNDUP FOR MINNESOTA
NATIONAL WEATHER SERVICE TWIN CITIES/CHANHASSEN MN
100 AM CST WED JAN 28 2015


NOTE: "FAIR" INDICATES FEW OR NO CLOUDS BELOW 12,000 FEET WITH NO
SIGNIFICANT WEATHER AND/OR OBSTRUCTIONS TO VISIBILITY. N/A MEANS
CURRENT SKY AND/OR WEATHER CONDITIONS ARE NOT AVAILABLE.

MNZ060>063-068>070-280800-
   Twin Cities Metro

CITY           SKY/WX    TMP DP  RH WIND       PRES   REMARKS
TWIN CITIES    CLOUDY    30  25  81 SE9       30.10F WCI  22
ST PAUL        CLOUDY    30  26  85 S9        30.13F WCI  22
CRYSTAL        CLOUDY    31  27  85 SE9       30.08F WCI  23
BLAINE         CLOUDY    32  28  86 SE10      30.10F WCI  24
LAKEVILLE      CLOUDY    28  27  93 SE8       30.10F WCI  20
EDEN PRAIRIE   CLOUDY    31  26  82 SE12      30.08F WCI  22
SOUTH ST PAUL  CLOUDY    31  26  83 SE8       30.12F WCI  23
LAKE ELMO      CLOUDY    30  28  93 S9        30.12F WCI  22
$$
MNZ001>005-007-008-013>017-022>024-027-028-280800-
   Northwest Minnesota

CITY           SKY/WX    TMP DP  RH WIND       PRES   REMARKS
BEMIDJI        CLOUDY    30  26  86 S15       29.95F WCI  19
HALLOCK        CLOUDY    32  30  93 S13       29.89F WCI  22
ROSEAU         CLOUDY    28  25  86 S8        29.93F WCI  20
WARROAD        MOCLDY    27  23  86 SE7       29.95S WCI  19
THIEF RVR FALL CLOUDY    30  28  93 SE10      29.91F WCI  21
CROOKSTON      CLOUDY    34  30  86 S15       29.91F WCI  24
FOSSTON        CLOUDY    30  27  86 SE9       29.92F WCI  22
DETROIT LAKES  CLOUDY    32  32 100 SE16      29.93F WCI  21
MOORHEAD       CLOUDY    36  36 100 S21       29.91F
PARK RAPIDS    CLOUDY    31  27  85 SE13      29.96F WCI  21
MAHNOMEN       CLOUDY    32  29  88 S12       29.90F WCI  23
$$
MNZ006-009>011-018-025>026-280800-
   North Central Minnesota

CITY           SKY/WX    TMP DP  RH WIND       PRES   REMARKS
BAUDETTE       MOCLDY    28  23  81 S5        29.95F WCI  23
FLAG ISLAND    CLOUDY    28  25  86 SE12      29.94S WCI  18
INTL FALLS     CLOUDY    28  24  85 SE7       29.99S WCI  21
WASKISH        CLOUDY    28  27  93 CALM      29.96F
BIG FORK       MOCLDY    28  25  86 S7        29.99S WCI  21
LONGVILLE      CLOUDY    28  27  93 S12G20    30.00F WCI  18
GRAND RAPIDS   CLOUDY    27  21  80 S13       30.00F WCI  16
CRANE LAKE     CLOUDY    27  25  93 CALM      30.05S
ORR            CLOUDY    27  21  80 SE5       29.99F WCI  21
COOK           CLOUDY    27  23  86 S5        30.02F WCI  21
WALKER         CLOUDY    30  26  85 S9        29.97F WCI  21
$$
MNZ012-019>021-037-280800-
   Northeast Minnesota

CITY           SKY/WX    TMP DP  RH WIND       PRES   REMARKS
DULUTH         MOCLDY    26  21  81 S10       30.06S WCI  16
ELY            CLOUDY    27  23  86 S8        30.04S WCI  18
HIBBING        CLOUDY    27  22  81 S8        30.03F WCI  19
EVELETH        CLOUDY    27  23  86 S8        30.05S WCI  18
DULUTH HARBOR  MOCLDY    28  23  80 S6        30.13R WCI  22
TWO HARBORS    CLOUDY    30  25  80 S6        30.08S WCI  24
SILVER BAY     CLOUDY    28  25  86 S5        30.08S WCI  23
GRAND MARAIS     N/A     32  26  78 SW13      30.12F WCI  22
G MARAIS ARPRT   N/A     25  19  80 S6        30.06S WCI  18
$$
MNZ029>031-032-039>041-046>048-054>057-064-280800-
   West Central Minnesota

CITY           SKY/WX    TMP DP  RH WIND       PRES   REMARKS
FERGUS FALLS   MOCLDY    34  30  86 SE16      29.95F WCI  23
WHEATON        MOCLDY    30  28  93 SE15      29.93F WCI  19
MORRIS         MOCLDY    34  30  86 SE21      29.94S FOG     WCI  22
ALEXANDRIA     CLOUDY    32  30  92 SE17      29.97F WCI  21
ELBOW LAKE     MOCLDY    32  31  95 SE17G23   29.93S WCI  21
WADENA         CLOUDY    30  28  93 SE13      29.96F WCI  20
GLENWOOD       CLOUDY    32  30  93 SE17      29.98F WCI  21
APPLETON       PTCLDY    34  30  86 SE13      29.95S WCI  25
BENSON         PTCLDY    34  30  86 S15G21    29.97S WCI  24
ORTONVILLE     PTCLDY    32  28  86 SE15      29.92F FOG     WCI  22
MADISON        PTCLDY    36  34  93 SE15      29.94S
WILLMAR        CLOUDY    34  30  86 SE17      30.01S FOG     WCI  23
$$
MNZ033>034-036-042>043-049>051-058-059-280800-
   Central Minnesota

CITY           SKY/WX    TMP DP  RH WIND       PRES   REMARKS
ST CLOUD       CLOUDY    30  27  88 SE13      30.04F WCI  20
SAUK CENTRE    CLOUDY    31  30  94 SE14      30.00F WCI  21
PAYNESVILLE    CLOUDY    30  29  97 E10G16    30.02F WCI  21
AITKIN         CLOUDY    32  25  74 S10       30.03F WCI  24
PINE RIVER     CLOUDY    30  27  86 S14G20    30.04F WCI  20
BRAINERD       CLOUDY    30  26  85 S10G17    30.03F WCI  21
STAPLES        CLOUDY    30  27  86 SE9       29.99F WCI  22
LONG PRAIRIE   CLOUDY    32  30  93 SE14      30.00F WCI  22
LITTLE FALLS   CLOUDY    32  28  86 SE10      30.03F WCI  24
LITCHFIELD     CLOUDY    34  32  93 SE12G20   30.04F WCI  25
BUFFALO        CLOUDY    32  28  86 SE8       30.07F WCI  24
MAPLE LAKE     CLOUDY    32  31  94 SE7       30.06F WCI  26
$$
MNZ037-044-045-052-053-280800-
   East Central Minnesota

CITY           SKY/WX    TMP DP  RH WIND       PRES   REMARKS
PRINCETON      CLOUDY    32  27  80 SE8       30.07F WCI  25
MORA           CLOUDY    28  25  86 S12       30.10F WCI  18
CAMBRIDGE      CLOUDY    30  23  74 SE7       30.08F WCI  23
RUSH CITY      CLOUDY    28  25  86 S5        30.10F WCI  23
MOOSE LAKE     CLOUDY    28  23  80 S5        30.06F WCI  23
HINCKLEY       CLOUDY    30  27  86 S10       30.09F WCI  21
CLOQUET        CLOUDY    27  21  80 S5        30.06F WCI  21
MCGREGOR       CLOUDY    30  27  86 S8        30.05F WCI  23
$$
MNZ071>073-080-081-089-090-097-098-280800-
   Southwest Minnesota

CITY           SKY/WX    TMP DP  RH WIND       PRES   REMARKS
MONTEVIDEO     PTCLDY    32  32 100 S13       29.97F WCI  22
GRANITE FALLS  PTCLDY    32  31  96 SE15      29.99F WCI  22
CANBY          CLEAR     32  31  97 SE9       29.94S FOG     WCI  24
MARSHALL       CLEAR     32  28  86 SE10      29.96S WCI  24
REDWOOD FALLS  CLOUDY    33  31  92 SE17      30.00F WCI  22
OLIVIA         CLOUDY    32  32 100 SE14G21   30.00F FOG     WCI  22
PIPESTONE      CLEAR     36  30  80 S14       29.91F
WINDOM         CLEAR     30  30 100 SE14      29.98S WCI  20
WORTHINGTON    CLEAR     32  28  86 S14G21    29.96F WCI  22
JACKSON        MOCLDY    32  30  93 SE14      30.00S WCI  22
TRACY          CLEAR     33  32  94 S9        29.96S WCI  26
SLAYTON        CLEAR     33  31  94 S15       29.94F WCI  22
$$
MNZ065>067-074>077-082>085-091>093-280800-
   South Central Minnesota

CITY           SKY/WX    TMP DP  RH WIND       PRES   REMARKS
MANKATO        CLOUDY    30  27  86 SE17      30.06F WCI  18
NEW ULM        CLOUDY    32  30  93 SE13      30.04S FOG     WCI  22
ST JAMES       CLOUDY    34  30  86 SE16      30.05F WCI  23
FAIRMONT       CLOUDY    30  27  86 S16       30.03S WCI  19
GLENCOE        CLOUDY    32  31  95 SE12      30.05F WCI  23
FARIBAULT      CLOUDY    30  27  86 SE10      30.10F WCI  21
OWATONNA       CLOUDY    30  27  86 SE13      30.09F WCI  20
WASECA         CLOUDY    32  30  93 SE15      30.09F WCI  22
ALBERT LEA     CLOUDY    28  28 100 SE14      30.08F FOG     WCI  17
$$
MNZ078>079-086>088-094>096-280800-
   Southeast Minnesota

CITY           SKY/WX    TMP DP  RH WIND       PRES   REMARKS
ROCHESTER      CLOUDY    27  24  89 S17       30.14R WCI  14
RED WING       CLOUDY    30  25  80 S7        30.15S WCI  23
STANTON        CLOUDY    30  27  86 SE8       30.11F WCI  23
DODGE CENTER   CLOUDY    28  27  93 S14       30.11F WCI  17
WINONA         CLOUDY    30  25  80 S9        30.19S WCI  22
AUSTIN         CLOUDY    28  25  86 S9        30.11F WCI  20
PRESTON        CLOUDY    26  23  89 S14       30.16R WCI  14
$$
ABBREVIATIONS USED IN REMARKS
   TC - TEMPERATURES IN CELSIUS
  WCI - WIND CHILL INDEX
   HX - HEAT INDEX
  VSB - VISIBILITY
$$


USA.gov is the U.S. government's official web portal to all federal, state and local government web resources and services.